GALAXY 18 (G-18)

Last updated on Thu Oct 30 2025 00:02:48 GMT+0000 (Coordinated Universal Time)

1 32951U 08024A 25302.52826191 .00000035 00000+0 00000+0 0 9996 2 32951 0.0253 265.0581 0003086 315.9246 244.3117 1.00269959 43545
UTC large
Height (km)
Speed (km/s)
/
Latitude / Longitude
Inclination (degrees)
Orbital Period (minutes)
Azimuth
Elevation
Range (km)
Doppler Factor

Next 0 passes for location: London (51.5072 / 0.1276)

Sorry there are no passes over London.